Zurück zum Katalog

STARLINK-36967

AktivKommunikationVLEO
NORAD 68013·PAYLOAD·🇺🇸 United States

Gestartet Feb 27, 2026 von Vandenberg Space Force Base

Loading…

Nächste Überflüge (nächste 24 Stunden)

TLE

AktuellSource: CelesTrak SupGP

Epoche: Sep 14, 2026, 22:41 UTC

1 68013C 26039AD  26257.94562500  .00054490  00000+0  19733-2 0  2574
2 68013  43.0044  60.0350 0001783 275.7011 266.0762 15.27555975    12

Verfolge STARLINK-36967 in Echtzeit mit AllMySat

Download on the App Store